sat.trackr.live / text

‹ back to catalog

FIRESAT 0 (MUSAT-4)

NORAD 63256 · 2025-052AY

PAYLOAD ACTIVE UNKNOWN

§ Identity

Operator
Country
US
Launch date
2025-03-15
Launch site
AFWTR
Launch vehicle
Mass (kg)
RCS (m²)

External: N2YO · Heavens-Above · Gunter

§ Orbital elements

Epoch: 2026-05-25T03:30:48.272256Z

Period
96.46 min
Inclination
97.6990°
Eccentricity
0.0001624
Mean motion
14.92876808 rev/d
Perigee alt
587.8 km
Apogee alt
590.1 km
Semi-major
6,967.1 km
B*
7.7491e-5
RAAN
36.8215°
Arg perigee
61.9116°
Mean anomaly
298.2267°
Rev number
6,515

§ Raw data

FIRESAT 0 (MUSAT-4)1 63256U 25052AY  26145.14639204  .00000748  00000+0  77491-4 0  99932 63256  97.6990  36.8215 0001624  61.9116 298.2267 14.92876808 65152

JSON: /api/v1/satellites/63256 · /tle

For live sub-satellite position, see the globe view (requires WebGL).

§ Visibility from observer

Set your observer location to see the next 7 days of passes ≥ 10°. The values pass through the URL so the page stays shareable.

No JS? Fill the form by hand. The geolocation button needs JavaScript.